Lambertville, MI

7:19 AM EDT on September 24, 2017 (GMT -0400)
Lambertville

Weather History for KDUH - February, 2014

Change the Weather History Date:

Thursday, February 20, 2014

  Actual Average (KTOL) Record (KTOL)
Temperature  
Mean Temperature 40 °F -  
Max Temperature 51 °F 38 °F 66 °F (1930)
Min Temperature 30 °F 21 °F -19 °F (2015)
Degree Days  
Heating Degree Days 24    
Moisture  
Dew Point 32 °F    
Average Humidity 91    
Maximum Humidity 93    
Minimum Humidity 80    
Precipitation  
Precipitation 0.00 in - - ()
Sea Level Pressure  
Sea Level Pressure 29.78 in    
Wind  
Wind Speed 5 mph (ESE)    
Max Wind Speed 20 mph    
Max Gust Speed 32 mph    
Visibility 3 miles    
Events Rain , Snow    
Averages and records for this station are not official NWS values.
T = Trace of Precipitation, MM = Missing Value Source: NWS Daily Summary

Daily Weather History Graph

Daily Weather History Graph

Search for Another Location

Airport or City:

Trip Planner

Search our weather history database for the weather conditions in past years. The results will help you decide how hot, cold, wet, or windy it might be!

Date:

Astronomy

Feb. 20, 2014 Rise Set
Actual Time 7:23 AM EST 6:14 PM EST
Civil Twilight 6:54 AM EST 6:42 PM EST
Nautical Twilight 6:22 AM EST 7:14 PM EST
Astronomical Twilight 5:50 AM EST 7:47 PM EST
Moon No Moon Rise 10:00 AM EST (2/20)
Length of Visible Light 11h 47m
Length of Day
10h 51m
Waning Gibbous, 71% of the Moon is Illuminated
Feb 20
Waning Gibbous
Feb 22
Last Quarter
Mar 1
New
Mar 8
First Quarter
Mar 16
Full

Hourly Weather History & Observations

Time (EST) Temp. Windchill Dew Point Humidity Pressure Visibility Wind Dir Wind Speed Gust Speed Precip Events Conditions
12:15 AM 32.0 °F - 30.2 °F 93% 30.06 in 4.0 mi Calm Calm - N/A   Clear
12:35 AM 32.0 °F 27.5 °F 30.2 °F 93% 30.07 in 4.0 mi SSW 4.6 mph - N/A   Clear
12:55 AM 32.0 °F 28.7 °F 30.2 °F 93% 30.07 in 5.0 mi SSW 3.5 mph - N/A   Clear
1:15 AM 32.0 °F 26.4 °F 30.2 °F 93% 30.08 in 5.0 mi SSW 5.8 mph - N/A   Clear
1:35 AM 32.0 °F - 30.2 °F 93% 30.08 in 5.0 mi Calm Calm - N/A   Clear
1:55 AM 32.0 °F - 30.2 °F 93% 30.08 in 4.0 mi Calm Calm - N/A   Clear
2:15 AM 32.0 °F - 28.4 °F 87% 30.07 in 4.0 mi Calm Calm - N/A   Clear
2:35 AM 32.0 °F 28.7 °F 30.2 °F 93% 30.07 in 4.0 mi South 3.5 mph - N/A   Mostly Cloudy
2:55 AM 32.0 °F - 28.4 °F 87% 30.06 in 4.0 mi Calm Calm - N/A   Scattered Clouds
3:15 AM 30.2 °F - 28.4 °F 93% 30.04 in 2.5 mi Calm Calm - N/A   Clear
3:35 AM 30.2 °F - 28.4 °F 93% 30.03 in 2.0 mi Calm Calm - N/A   Clear
3:55 AM 30.2 °F - 26.6 °F 86% 30.03 in 1.5 mi Calm Calm - N/A   Mist
4:15 AM 30.2 °F 26.7 °F 28.4 °F 93% 30.02 in 2.5 mi SE 3.5 mph - N/A   Clear
4:35 AM 30.2 °F 26.7 °F 28.4 °F 93% 30.00 in 3.0 mi ESE 3.5 mph - N/A   Clear
4:55 AM 30.2 °F 26.7 °F 28.4 °F 93% 29.99 in 2.5 mi ESE 3.5 mph - N/A   Clear
5:15 AM 30.2 °F 26.7 °F 28.4 °F 93% 29.98 in 3.0 mi ESE 3.5 mph - N/A   Clear
5:35 AM 30.2 °F 25.4 °F 28.4 °F 93% 29.97 in 3.0 mi ESE 4.6 mph - N/A   Clear
5:55 AM 30.2 °F 26.7 °F 28.4 °F 93% 29.98 in 3.0 mi SE 3.5 mph - N/A   Clear
6:15 AM 32.0 °F 27.5 °F 28.4 °F 87% 29.96 in 3.0 mi ESE 4.6 mph - N/A   Clear
6:35 AM 32.0 °F 28.7 °F 28.4 °F 87% 29.97 in 3.0 mi ESE 3.5 mph - N/A   Clear
6:55 AM 30.2 °F 25.4 °F 28.4 °F 93% 29.96 in 3.0 mi East 4.6 mph - N/A   Clear
7:15 AM 30.2 °F 26.7 °F 28.4 °F 93% 29.95 in 3.0 mi East 3.5 mph - N/A   Clear
7:35 AM 30.2 °F 25.4 °F 28.4 °F 93% 29.92 in 3.0 mi East 4.6 mph - N/A   Clear
7:55 AM 32.0 °F 26.4 °F 28.4 °F 87% 29.90 in 4.0 mi ESE 5.8 mph - N/A   Clear
8:15 AM 32.0 °F 27.5 °F 28.4 °F 87% 29.91 in 5.0 mi East 4.6 mph - N/A   Haze
8:35 AM 32.0 °F 28.7 °F 26.6 °F 80% 29.91 in 5.0 mi East 3.5 mph - N/A   Haze
8:55 AM 32.0 °F - 26.6 °F 80% 29.90 in 5.0 mi Calm Calm - N/A   Haze
9:15 AM 32.0 °F 26.4 °F 26.6 °F 80% 29.88 in 5.0 mi East 5.8 mph - N/A   Haze
9:35 AM 32.0 °F 25.6 °F 28.4 °F 87% 29.85 in 2.0 mi East 6.9 mph - N/A Snow Light Snow
9:55 AM 32.0 °F 28.7 °F 30.2 °F 93% 29.87 in 2.0 mi ESE 3.5 mph - N/A Snow Light Snow
10:15 AM 32.0 °F 26.4 °F 30.2 °F 93% 29.88 in 1.8 mi East 5.8 mph - N/A Snow Light Snow
10:35 AM 33.8 °F 27.0 °F 32.0 °F 93% 29.86 in 1.2 mi East 8.1 mph 17.3 mph N/A Snow Light Snow
10:55 AM 33.8 °F 25.3 °F 32.0 °F 93% 29.85 in 1.0 mi East 11.5 mph 16.1 mph N/A Snow Light Snow
11:15 AM 33.8 °F 22.5 °F 32.0 °F 93% 29.80 in 0.8 mi East 19.6 mph 32.2 mph N/A Snow Light Snow
11:35 AM 33.8 °F 27.0 °F 32.0 °F 93% 29.80 in 0.8 mi ENE 8.1 mph 26.5 mph N/A Snow Light Snow
11:55 AM 33.8 °F 27.7 °F 32.0 °F 93% 29.82 in 1.0 mi East 6.9 mph - N/A Snow Light Snow
12:15 PM 33.8 °F 27.0 °F 32.0 °F 93% 29.82 in 1.2 mi East 8.1 mph 21.9 mph N/A Snow Light Snow
12:35 PM 33.8 °F 25.3 °F 32.0 °F 93% 29.79 in 1.0 mi East 11.5 mph 21.9 mph N/A Snow Light Snow
12:55 PM 33.8 °F 27.0 °F 32.0 °F 93% 29.77 in 2.5 mi East 8.1 mph 17.3 mph N/A Rain Light Rain
1:15 PM 33.8 °F 25.8 °F 32.0 °F 93% 29.75 in 1.5 mi East 10.4 mph - N/A   Light Drizzle
1:35 PM 33.8 °F 26.4 °F 32.0 °F 93% 29.71 in 1.0 mi East 9.2 mph - N/A   Overcast
1:55 PM 35.6 °F 29.9 °F 32.0 °F 87% 29.71 in 1.0 mi ESE 6.9 mph - N/A   Overcast
2:15 PM 35.6 °F 28.6 °F 33.8 °F 93% 29.71 in 3.0 mi East 9.2 mph - N/A   Overcast
2:35 PM 35.6 °F 28.0 °F 33.8 °F 93% 29.70 in 7.0 mi ESE 10.4 mph 16.1 mph N/A   Overcast
2:55 PM 35.6 °F 30.7 °F 33.8 °F 93% 29.70 in 7.0 mi East 5.8 mph - N/A   Overcast
3:15 PM 35.6 °F 29.9 °F 33.8 °F 93% 29.69 in 5.0 mi East 6.9 mph - N/A Rain Light Rain
3:35 PM 35.6 °F 28.6 °F 33.8 °F 93% 29.68 in 4.0 mi East 9.2 mph - N/A   Overcast
3:55 PM 35.6 °F 28.6 °F 32.0 °F 87% 29.67 in 4.0 mi East 9.2 mph 17.3 mph N/A   Overcast
4:15 PM 35.6 °F 28.0 °F 32.0 °F 87% 29.66 in 3.0 mi ESE 10.4 mph 16.1 mph N/A   Overcast
4:35 PM 35.6 °F 26.6 °F 32.0 °F 87% 29.65 in 1.8 mi East 13.8 mph 17.3 mph N/A Rain Light Rain
4:55 PM 35.6 °F 28.6 °F 32.0 °F 87% 29.64 in 1.8 mi East 9.2 mph 18.4 mph N/A Snow Light Snow
5:15 PM 35.6 °F 28.0 °F 32.0 °F 87% 29.63 in 2.5 mi East 10.4 mph 20.7 mph N/A   Light Drizzle
5:35 PM 33.8 °F 25.3 °F 32.0 °F 93% 29.61 in 1.8 mi East 11.5 mph 16.1 mph N/A Rain Light Rain
5:55 PM 33.8 °F 25.3 °F 32.0 °F 93% 29.60 in 2.0 mi East 11.5 mph 16.1 mph N/A Rain Light Rain
6:15 PM 33.8 °F 25.8 °F 32.0 °F 93% 29.58 in 3.0 mi East 10.4 mph 18.4 mph N/A   Overcast
6:35 PM 33.8 °F 26.4 °F 32.0 °F 93% 29.57 in 2.5 mi East 9.2 mph - N/A   Overcast
6:55 PM 33.8 °F 27.0 °F 32.0 °F 93% 29.56 in 2.5 mi East 8.1 mph - N/A   Overcast
7:15 PM 33.8 °F 29.6 °F 32.0 °F 93% 29.56 in 2.0 mi East 4.6 mph - N/A Rain Rain
7:35 PM 33.8 °F 28.6 °F 32.0 °F 93% 29.54 in 2.5 mi East 5.8 mph - N/A   Overcast
7:55 PM 35.6 °F 31.7 °F 32.0 °F 87% 29.53 in 2.0 mi East 4.6 mph - N/A   Overcast
8:15 PM 35.6 °F 30.7 °F 32.0 °F 87% 29.52 in 2.0 mi ESE 5.8 mph - N/A   Overcast
8:35 PM 35.6 °F 30.7 °F 33.8 °F 93% 29.49 in 2.0 mi East 5.8 mph - N/A   Overcast
8:55 PM 35.6 °F 29.9 °F 33.8 °F 93% 29.48 in 1.8 mi East 6.9 mph - N/A   Mostly Cloudy
9:15 PM 35.6 °F 30.7 °F 33.8 °F 93% 29.47 in 2.0 mi ESE 5.8 mph - N/A   Mostly Cloudy
9:35 PM 35.6 °F 30.7 °F 33.8 °F 93% 29.45 in 1.5 mi ESE 5.8 mph - N/A   Overcast
9:55 PM 37.4 °F 33.8 °F 35.6 °F 93% 29.44 in 1.8 mi ESE 4.6 mph - N/A   Mostly Cloudy
10:15 PM 37.4 °F 33.8 °F 35.6 °F 93% 29.44 in 2.5 mi SE 4.6 mph - N/A Rain Light Rain
10:35 PM 42.8 °F 38.6 °F 41.0 °F 93% 29.45 in 5.0 mi South 6.9 mph - N/A Rain Rain
10:55 PM 50.0 °F - 46.4 °F 87% 29.44 in 2.0 mi SSE 12.7 mph 26.5 mph N/A   Overcast
11:15 PM 51.8 °F - 48.2 °F 88% 29.40 in 7.0 mi South 15.0 mph 20.7 mph N/A Rain Rain
11:35 PM 51.8 °F - 46.4 °F 82% 29.42 in 10.0 mi SSW 12.7 mph 25.3 mph N/A   Overcast
11:55 PM 50.0 °F - 46.4 °F 87% 29.43 in 10.0 mi SSW 10.4 mph 18.4 mph N/A   Scattered Clouds